Skip Page Navigation
NASA JPL Caltech
NASA Logo - Jet Propulsion Laboratory + View the NASA Portal
+ Center for Near-Earth Object Studies
JPL Home Earth Solar System Stars & Galaxies Technology
JPL Solar System Dynamics
BODIES ORBITS EPHEMERIDES TOOLS PHYSICAL DATA DISCOVERY FAQ SITE MAP
JPL Small-Body Database Browser
Search: [ help ]  
91333 (1999 JP2)
Classification: Main-belt Asteroid          SPK-ID: 2091333
Ephemeris | Orbit Diagram | Orbital Elements | Mission Design | Physical Parameters | Discovery Circumstances | Close-Approach Data ]

[ show orbit diagram ]
Orbital Elements at Epoch 2459200.5 (2020-Dec-17.0) TDB
Reference: JPL 25 (heliocentric ecliptic J2000)
 Element Value Uncertainty (1-sigma)   Units 
e .1671325814526005 3.6724e-08  
a 2.337467343013875 8.6529e-09 au
q 1.946800391914815 8.6694e-08 au
i 5.215273144826341 4.5112e-06 deg
node 103.2321018578631 5.0054e-05 deg
peri 26.14047473458427 5.2245e-05 deg
M 79.26290926049805 1.4458e-05 deg
tp 2458913.101655107631
(2020-Mar-04.60165511)
5.2065e-05 TDB
period 1305.319286492748
3.57
7.2481e-06
1.984e-08
d
yr
n .2757945919632285 1.5314e-09 deg/d
Q 2.728134294112935 1.0099e-08 au
  Orbit Determination Parameters
   # obs. used (total)      950  
   data-arc span      10774 days (29.50 yr)  
   first obs. used      1990-11-10  
   last obs. used      2020-05-10  
   planetary ephem.      DE441  
   SB-pert. ephem.      SB441-N16  
   condition code      0  
   norm. resid. RMS      .52327  
   source      ORB  
   producer      Otto Matic  
   solution date      2021-Apr-13 14:45:10  

Additional Information
 Earth MOID = .963318 au 
 Jupiter MOID = 2.32629 au 
 T_jup = 3.542 
[ hide covariance matrix ]
Orbital Elements at Epoch 2456864.5 (2014-Jul-26.0) TDB
Reference: JPL 25 (heliocentric ecliptic J2000)
 Element Value Uncertainty (1-sigma)   Units 
e .1668890125212468 3.6803e-08  
q 1.948039733747443 8.6906e-08 au
tp 2456302.220936233718
(2013-Jan-09.72093623)
5.1195e-05 TDB
node 103.2738802553105 5.0054e-05 deg
peri 26.3046383642587 5.2243e-05 deg
i 5.214676093174928 4.5102e-06 deg
  Orbit Determination Parameters
   # obs. used (total)      950  
   data-arc span      10774 days (29.50 yr)  
   first obs. used      1990-11-10  
   last obs. used      2020-05-10  
   planetary ephem.      DE441  
   SB-pert. ephem.      SB441-N16  
   condition code      0  
   norm. resid. RMS      .52327  
   source      ORB  
   producer      Otto Matic  
   solution date      2021-Apr-13 14:45:10  

Additional Information
 Jupiter MOID = 2.32629 au 
 T_jup = 3.542 
Orbit Covariance (6×6)
  e q tp node peri i
e 1.354448303826896E-15 -3.187386440894828E-15 -5.530773251346945E-14 7.391893747613464E-15 -1.300901752671916E-16 -6.896007898721871E-17
q -3.187386440894828E-15 7.552610151639992E-15 1.000964052574555E-13 -1.756007373927014E-14 -1.671771171600842E-15 2.100903524087571E-16
tp -5.530773251346945E-14 1.000964052574555E-13 2.620919368180806E-9 -1.060340196474265E-11 7.840576188698641E-10 7.7498631639469E-13
node 7.391893747613464E-15 -1.756007373927014E-14 -1.060340196474265E-11 2.505392859492287E-9 -2.497301663249267E-9 -4.69257478287535E-11
peri -1.300901752671916E-16 -1.671771171600842E-15 7.840576188698641E-10 -2.497301663249267E-9 2.729359098765446E-9 4.696030515584662E-11
i -6.896007898721871E-17 2.100903524087571E-16 7.7498631639469E-13 -4.69257478287535E-11 4.696030515584662E-11 2.034213156280764E-11

Ephemeris | Orbit Diagram | Orbital Elements | Mission Design | Physical Parameters | Discovery Circumstances | Close-Approach Data ]

Physical Parameter Table
Parameter Symbol Value Units Sigma Reference Notes
absolute magnitude H 15.79   n/a E2021B10  
diameter diameter 3.626 km 0.150 urn:nasa:pds:neowise_diameters_albedos::2.0[mainbelt] (http://adsabs.harvard.edu/abs/2011ApJ...741...68M)  
geometric albedo albedo 0.077   0.012 urn:nasa:pds:neowise_diameters_albedos::2.0[mainbelt] (http://adsabs.harvard.edu/abs/2011ApJ...741...68M)  

91333 (1999 JP2)          Discovered 1999-May-08 by CSS at Catalina
Reference: 20041028/Numbers.arcLast Updated: 2004-10-29

[ show close-approach data ]
Ephemeris | Orbit Diagram | Orbital Elements | Mission Design | Physical Parameters | Discovery Circumstances | Close-Approach Data ]
ABOUT SSD CREDITS/AWARDS PRIVACY/COPYRIGHT GLOSSARY LINKS
FirstGov 2021-Apr-19 01:21 UT
(server date/time)  
NASA Home Page
Site Manager:   Ryan S. Park
Webmaster  Alan B. Chamberlin